User: anonymous   Login
Location: Unspecified
(0.0000°N, 0.0000°E)
Time: 09:45:05
(UTC+00:00)
Language:

A-11 Canister half - Orbit

View from above orbital plane
View from above orbital plane
View from above satellite
View from above satellite

Ground track
Ground track

The orbit data is extracted from the following two-line orbital elements,

1 00053U 60009E   15215.74509951 -.00000084  00000-0  00000+0 0  9999
2 00053 047.2784 346.9664 0098887 221.6439 137.6788 12.17173488451795
Epoch (UTC): 03 August 2015 17:52:56
Eccentricity: 0.0098887
inclination: 47.2784°
perigee height: 1526 km
apogee height: 1684 km
right ascension of ascending node: 346.9664°
argument of perigee: 221.6439°
revolutions per day: 12.17173488
mean anomaly at epoch: 137.6788°
orbit number at epoch: 45179

The dashed part of the orbit path shows where the satellite is in the earth's shadow,  

DLR